Flag for Mexico Weather past 2 weeks in Guadalajara, Jalisco, Mexico

Now
75 °F

Partly sunny.


Feels Like: 78 °F
Forecast: 62 / 80 °F
Wind: 5 mph from Southeast

Location: Don Miguel / Guadalaj

Current Time: Aug 23, 2014 at 12:52:57 PM

Latest Report: Aug 23, 2014 at 11:53 AM


Visibility: 8 mi

Pressure: 30.19 "Hg

Humidity: 57%

Dew point: 59 °F

Location of GuadalajaraLocation

Historic Weather in Guadalajara — Graph

°F

Guadalajara temperature yesterday

Maximum temperature yesterday: 79 °F (at 3:53 PM)
Minimum temperature yesterday: 61 °F (at 3:45 AM)
Average temperature yesterday: 69 °F

Past Weeks' High & Low Weather Summary

 TemperatureHumidityPressure
High84 °F (Aug 17, 5:48 PM)100% (Aug 19, 1:42 AM)30.27 "Hg (Aug 19, 1:42 AM)
Low57 °F (Aug 9, 6:55 AM)28% (Aug 21, 5:19 PM)29.73 "Hg (Aug 12, 12:48 AM)
Average69 °F71%30.09 "Hg
* Reported Aug 8 11:52 AM — Aug 23 11:53 AM, Guadalajara, Weather by CustomWeather, © 2014

Note: Actual official high and low records may vary slightly from our data, if they occured in-between our weather recording intervals... More about our weather records

Advertising

Guadalajara weather history for previous 24 hours

 ConditionsComfort  
Time TempWeatherWind HumidityBarometerVisibility
11:53 AM
Aug 23
75 °FPartly sunny.5 mph57%30.19 "Hg8 mi
10:55 AM72 °FPartly sunny.10 mph61%30.20 "Hg8 mi
9:49 AM70 °FBroken clouds.6 mph64%29.88 "Hg6 mi
7:47 AM64 °FPassing clouds.5 mph78%30.16 "Hg8 mi
5:56 AM63 °FPartly cloudy.No wind88%30.15 "Hg10 mi
4:52 AM64 °FPassing clouds.5 mph78%30.15 "Hg10 mi
3:52 AM63 °FPassing clouds.5 mph83%29.83 "Hg10 mi
2:55 AM63 °FPassing clouds.5 mph83%30.16 "Hg10 mi
1:52 AM64 °FPassing clouds.8 mph78%30.17 "Hg10 mi
12:55 AM64 °FPassing clouds.No wind83%29.87 "Hg10 mi
11:52 PM
Aug 22
64 °FPassing clouds.5 mph83%30.16 "Hg10 mi
10:47 PM66 °FPassing clouds.3 mph78%30.18 "Hg10 mi
8:51 PM70 °FPartly sunny.8 mph60%30.13 "Hg10 mi
7:46 PM77 °FPartly sunny.7 mph47%30.11 "Hg10 mi
6:52 PM79 °FPartly sunny.8 mph42%29.74 "Hg10 mi
5:50 PM79 °FPartly sunny.10 mph42%30.09 "Hg8 mi
4:45 PM79 °FPartly sunny.7 mph42%30.11 "Hg6 mi
3:53 PM79 °FPartly sunny.8 mph48%29.82 "Hg5 mi
1:46 PM73 °FMostly cloudy.No wind61%30.20 "Hg5 mi
12:46 PM73 °FBroken clouds.No wind65%29.92 "Hg4 mi
Weather by CustomWeather, © 2014

See weather overviewHow to use our weather pages